Regional Weather Roundup
Issued by NWS

Home | Current Version | Previous Version | Text Only | Print | Product List | Glossary On
Versions: 1 2 3 4 5 6 7 8 9 10 11 12 13 14 15 16 17 18 19 20 21 22 23 24 25 26 27 28 29 30 31 32 33 34 35 36 37 38 39 40 41 42 43 44 45 46 47 48 49 50
000
ASUS43 KDMX 251807
RWRIA

WEATHER ROUNDUP FOR IOWA
NATIONAL WEATHER SERVICE DES MOINES IA
100 PM CDT SAT APR 25 2015

NOTE: "FAIR" INDICATES FEW OR NO CLOUDS BELOW 12,000 FEET WITH NO
SIGNIFICANT WEATHER AND/OR OBSTRUCTIONS TO VISIBILITY.

* - THESE STATIONS ARE NOT NWS STATIONS...THUS NOT UNDER NWS
QUALITY CONTROL.  THEY ALSO DO NOT REPORT WEATHER SUCH
AS PRECIPITATION OR FOG.

IAZ001>003-012>014-020>022-031>034-043>046-251900-
   NORTHWEST IOWA

CITY           SKY/WX    TMP DP  RH WIND       PRES   REMARKS
CARROLL *      CLOUDY    48  45  87 NE16      29.69R
CHEROKEE *     PTSUNNY   56  44  64 NE16G23   29.72S
DENISON *      CLOUDY    48  48 100 NE15G22   29.69R
LE MARS *      MOSUNNY   57  45  62 NE14G22   29.74S
ORANGE CITY *  SUNNY     54  41  62 E12G22    29.75R
SHELDON *      SUNNY     54  43  66 E17G25    29.74R
SIOUX CITY     CLOUDY    54  43  66 E13       29.73R
6HR MIN TEMP:  46; 6HR MAX TEMP:  54; 6HR PCP:  0.02;

SPENCER        PTSUNNY   54  42  64 E20G28    29.75S
6HR MIN TEMP:  44; 6HR MAX TEMP:  54;

STORM LAKE *   PTSUNNY   52  45  76 E22       29.72S
$$

IAZ055>058-069>071-079>083-090>094-251900-
   SOUTHWEST IOWA

CITY           SKY/WX    TMP DP  RH WIND       PRES   REMARKS
ATLANTIC *     CLOUDY    46  46 100 NE15G23   29.67R
AUDUBON *      MOSUNNY   46  45  93 NE16      29.68R
CLARINDA *     CLOUDY    50  48  93 N15       29.63R
COUNCIL BLFS * CLOUDY    46  46 100 NE17      29.67R FOG
CRESTON *      CLOUDY    46  46 100 NE21G28   29.62R FOG
HARLAN  *      CLOUDY    48  48 100 NE18      29.71R
LAMONI         CLOUDY    47  44  90 NE18      29.58R
6HR MIN TEMP:  47; 6HR MAX TEMP:  53; 6HR PCP:  0.01;

RED OAK *      CLOUDY    48  48 100 NE17G24   29.64R
SHENANDOAH *   CLOUDY    50  50 100 NE16      29.63R
$$

IAZ047>049-059>061-072>074-084-251900-
   CENTRAL IOWA

CITY           SKY/WX    TMP DP  RH WIND       PRES   REMARKS
AMES           CLOUDY    48  42  80 NE20G28   29.67S
6HR MIN TEMP:  43; 6HR MAX TEMP:  48; 6HR PCP:  0.13;

ANKENY *       CLOUDY    46  45  93 NE15G22   29.66R
CHARITON *     CLOUDY    46  45  93 NE15      29.60R
DES MOINES     CLOUDY    48  43  82 E14       29.65R
6HR MIN TEMP:  45; 6HR MAX TEMP:  48; 6HR PCP:  0.15;

GRINNELL*      CLOUDY    46  43  87 NE16G23   29.66S
KNOXVILLE *    CLOUDY    46  43  87 NE14G21   29.61R
MARSHALLTOWN   CLOUDY    48  44  86 E22       29.66R
6HR MIN TEMP:  42; 6HR MAX TEMP:  49; 6HR PCP:  0.03;

PELLA *        CLOUDY    46  46 100 NE5       29.65R
PERRY *        CLOUDY    47  44  87 NE13G18   29.68R
$$

IAZ004>006-015-016-023>025-035-036-251900-
   NORTH CENTRAL IOWA

CITY           SKY/WX    TMP DP  RH WIND       PRES   REMARKS
ALGONA *       MOSUNNY   54  43  66 E17G25    29.75R
CLARION *      PTSUNNY   54  46  76 E24G31    29.72R
ESTHERVILLE    PTSUNNY   53  41  63 E20       29.76S
6HR MIN TEMP:  41; 6HR MAX TEMP:  54;

FORT DODGE *   CLOUDY    50  43  76 E17G23    29.73R
MASON CITY     MOSUNNY   53  40  61 E22G30    29.75S
6HR MIN TEMP:  41; 6HR MAX TEMP:  55;

FOREST CITY *  MOSUNNY   52  41  66 E15G22    29.75S
IOWA FALLS *   CLOUDY    48  41  76 E17G32    29.71R
$$

IAZ007>011-017>019-026>030-037>042-050>054-066-251900-
   NORTHEAST IOWA

CITY           SKY/WX    TMP DP  RH WIND       PRES   REMARKS
CEDAR RAPIDS   CLOUDY    48  48 100 NE23G33   29.64R
6HR MIN TEMP:  42; 6HR MAX TEMP:  48; 6HR PCP:  0.22;

CHARLES CITY * CLOUDY    50  41  71 E20G31    29.75F
CLINTON *      CLOUDY   N/A N/A N/A E26G32    29.68F
DECORAH *      CLOUDY    50  37  62 E17G25    29.76S
DUBUQUE        CLOUDY    47  41  80 E20G26    29.73F
6HR MIN TEMP:  42; 6HR MAX TEMP:  47;

MONTICELLO *   CLOUDY    50  46  87 NE20G28   29.68F
OELWEIN *      CLOUDY    48  41  76 E24G31    29.71F
WATERLOO       CLOUDY    51  41  68 E23G29    29.70F
6HR MIN TEMP:  43; 6HR MAX TEMP:  51;

$$

IAZ064-065-067-068-078-251900-
   EAST CENTRAL IOWA

CITY           SKY/WX    TMP DP  RH WIND       PRES   REMARKS
DAVENPORT      CLOUDY    47  43  86 E35G41    29.60F
6HR MIN TEMP:  43; 6HR MAX TEMP:  48; 6HR PCP:  0.29;

IOWA CITY      CLOUDY    48  44  86 E14G24    29.65R
6HR MIN TEMP:  43; 6HR MAX TEMP:  48; 6HR PCP:  0.44;

MT. PLEASANT * CLOUDY    49  48  99 NE12G17   29.60S
MUSCATINE *    CLOUDY    50  45  81 E13G20    29.63R
QUAD CITIES    CLOUDY    47  43  86 E32G40    29.58F
6HR MIN TEMP:  43; 6HR MAX TEMP:  47; 6HR PCP:  0.22;

$$

IAZ062-063-075>077-085>089-095>099-251900-
   SOUTHEAST IOWA

CITY           SKY/WX    TMP DP  RH WIND       PRES   REMARKS
BURLINGTON     CLOUDY    49  47  93 E10       29.59F
6HR MIN TEMP:  47; 6HR MAX TEMP:  50; 6HR PCP:  0.35;

FAIRFIELD *    CLOUDY    46  45  93 NE15G23   29.60S
FORT MADISON * CLOUDY    48  46  93 E15G21    29.58F
KEOKUK *       CLOUDY    54  50  87 E13G18    29.55F
OSKALOOSA *    CLOUDY    46  44  91 NE18G25   29.62R
CENTERVILLE *  CLOUDY    48  48 100 NE16G22   29.58S
OTTUMWA        CLOUDY    48  45  89 NE17G25   29.60S
6HR MIN TEMP:  44; 6HR MAX TEMP:  48; 6HR PCP:  0.26;

WASHINGTON *   CLOUDY    48  48 100 E15       29.62S
$$

ABBREVIATIONS USED IN REMARKS
   TC - TEMPERATURES IN CELSIUS
  WCI - WIND CHILL INDEX
   HX - HEAT INDEX
  VSB - VISIBILITY
$$



USA.gov is the U.S. government's official web portal to all federal, state and local government web resources and services.